Regional Weather Roundup
Issued by NWS

Home | Current Version | Previous Version | Graphics & Text | Print | Product List | Glossary On
Versions: 1 2 3 4 5 6 7 8 9 10 11 12 13 14 15 16 17 18 19 20 21 22 23 24 25 26 27 28 29 30 31 32 33 34 35 36 37 38 39 40 41 42 43 44 45 46 47 48 49 50
000
ASUS43 KMKX 280311
RWRWI

WISCONSIN REGIONAL WEATHER ROUNDUP
NATIONAL WEATHER SERVICE MILWAUKEE/SULLIVAN WI
1000 PM CDT SUN JUL 27 2014

NOTE: "FAIR" INDICATES FEW OR NO CLOUDS BELOW 12,000 FEET WITH NO
SIGNIFICANT WEATHER AND/OR OBSTRUCTIONS TO VISIBILITY.

WIZ001-002-006>008-014>016-023>028-280400-
NORTHWEST WISCONSIN

CITY           SKY/WX    TMP DP  RH WIND       PRES   REMARKS
SUPERIOR ARPT  CLEAR     56  55  97 SW3       30.09R
ASHLAND        CLOUDY    56  54  93 CALM      30.10R
HAYWARD        PTCLDY    53  51  93 CALM      30.09R
SIREN          CLOUDY    61  55  79 N3        30.10R
RICE LAKE      CLEAR     56  52  84 CALM      30.10R
LADYSMITH      CLEAR     57  52  81 N8        30.08S
EAU CLAIRE     CLEAR     59  52  77 N5        30.06R
MENOMONIE      CLEAR     60  53  78 W5        30.08R
NEW RICHMOND   CLEAR     57  55  92 CALM      30.11R
OSCEOLA        CLEAR     61  56  84 CALM      30.13R
$$

WIZ003>005-009-010-017-018-280400-
NORTH CENTRAL WISCONSIN

CITY           SKY/WX    TMP DP  RH WIND       PRES   REMARKS
WOODRUFF       CLEAR     55  51  89 N8        30.06R
RHINELANDER    CLEAR     55  50  83 N5        30.04R
EAGLE RIVER    CLEAR     54  48  80 N5        30.04R
LAND O LAKES   MOCLDY    56  50  82 N9        30.05R
PHILLIPS       CLEAR     54  51  92 NW3       30.06R
TOMAHAWK       CLEAR     53  49  87 CALM      30.05R
MEDFORD        CLEAR     54  50  86 N5        30.05R
MERRILL        CLEAR     55  52  89 NW3       30.03R
$$

WIZ029-030-035-036-043>047-280400-
CENTRAL WISCONSIN

CITY           SKY/WX    TMP DP  RH WIND       PRES   REMARKS
WAUSAU         CLEAR     59  52  77 N7        30.00R
MOSINEE        CLEAR     57  54  88 N9        30.02R
MARSHFIELD     CLEAR     60  51  72 N8        30.02R
STEVENS POINT  CLEAR     57  52  83 NW3       30.01R
WAUPACA        CLEAR     61  57  85 N6        29.98R
WAUTOMA        CLEAR     63  55  75 N9        29.99R
WISC RAPIDS    CLEAR     61  53  75 MISG      30.02R
CAMP DOUGLAS   CLEAR     62  59  91 N6        30.02R
$$

WIZ011>013-019>022-031-037>040-048>050-280400-
NORTHEAST WISCONSIN

CITY           SKY/WX    TMP DP  RH WIND       PRES   REMARKS
ANTIGO         CLEAR     53  50  89 N8        30.01S
STURGEON BAY   PTCLDY    61  48  63 N20G26    29.94R
GREEN BAY      PTCLDY    61  52  72 N9        29.95R
MANITOWOC      CLOUDY    64  52  64 N23G30    29.91R
APPLETON       PTCLDY    61  54  77 N13       29.96R
CLINTONVILLE   CLEAR     61  52  72 N6        29.98R
OSHKOSH        CLEAR     63  55  75 N13       29.96R
$$

WIZ032>034-041-042-053>061-280400-
SOUTHWEST WISCONSIN

CITY           SKY/WX    TMP DP  RH WIND       PRES   REMARKS
LA CROSSE      CLOUDY    67  56  67 N13G21    30.03R
SPARTA         CLOUDY    64  55  71 N8        30.04R
VIROQUA        CLOUDY    65  59  81 N9        30.02R
BOSCOBEL       MOCLDY    64  60  87 N7        29.98R
PRAIRIE DU CHI CLEAR     67  59  75 NW8       29.99R
PLATTEVILLE    FAIR      65  61  85 NW8       29.99R
$$

WIZ056-057-062-063-064-067-068-280400-
SOUTH CENTRAL WISCONSIN

CITY           SKY/WX    TMP DP  RH WIND       PRES   REMARKS
BARABOO/DELLS  CLOUDY    64  54  68 NE13G18   29.99R
LONE ROCK      CLEAR     70  59  68 N8        29.97R
WATERTOWN      MOCLDY    64  59  86 N7G18     29.93R
MADISON        CLOUDY    67  60  78 N8        29.96R
MIDDLETON      CLOUDY    66  63  90 N6        29.97R
MONROE         CLOUDY    64  59  82 N7        29.95R
JANESVILLE     MOCLDY    66  59  77 NW6       29.92R
$$

WIZ051-052-058>065-066-070>072-280400-
SOUTHEAST WISCONSIN

CITY           SKY/WX    TMP DP  RH WIND       PRES   REMARKS
MILWAUKEE      MOCLDY    64  59  83 N13G18    29.90R
WAUKESHA       MOCLDY    61  55  82 N16G23    29.93R
MILWAUKEE/TIMM PTCLDY    63  54  72 N16       29.91R
RACINE         CLOUDY    63  59  87 N12       29.91R
BURLINGTON     MOCLDY    64  57  80 N7        29.91R
KENOSHA        CLOUDY    63  59  87 N12G20    29.91R
FOND DU LAC    MOCLDY    64  53  67 N15G26    29.95R
SHEBOYGAN      CLOUDY    63  53  70 N13       29.92R
WEST BEND      CLEAR     61  52  72 N10G17    29.93R
JUNEAU         CLOUDY    63  55  75 N14G21    29.95R
$$

LSZ147-162-280400-
LAKE SUPERIOR

STATION/POSITION TIME  TEMP    WIND        PRES    WAVE
                       AIR SEA DIR/SP/G            HT/PER
                 (UTC) (F)     (DEG/KT/KT) (MB)    (FT/S)
W MID LAKE BUOY  0250   49 43  280/  6/  8 1018.2R   1/ 4
PORT WING        0200   58     170/  3/  4 1017.9
SAXON HARBOR     0200             CALM     1017.9
$$

LMZ867-665-643>646-280400-
LAKE MICHIGAN

STATION/POSITION TIME  TEMP    WIND        PRES    WAVE
                       AIR SEA DIR/SP/G            HT/PER
                 (UTC) (F)     (DEG/KT/KT) (MB)    (FT/S)
N MID LAKE BUOY  0150   60 56  340/ 19/ 21 1010.2R   3/ 4
NORTHPORT PIER   0220   62     350/ 24     1012.9R
KEWAUNEE LAKESHO 0200   64     340/  9/ 15 1013.3R
SHEBOYGAN LAKESH 0300   64     330/ 15/ 18 1012.7R
PORT WASHINGTON  0200   66     360/  7/ 13 1012.2
ATWATER BUOY     0300   63      10/ 14     1013.5R
MILWAUKEE LAKESH 0200   62     360/ 12/ 16   N/A
S MID LAKE BUOY  0250   62 61  330/ 23/ 29 1010.0R   4/ 5
KENOSHA   LAKESH 0300   63     360/ 15/ 19 1012.2R
$$

TC  - TEMPERATURE IN CELSIUS
VSB - VISIBILITY IN STATUTE MILES
WCI - WIND CHILL INDEX
HX  - HEAT INDEX




USA.gov is the U.S. government's official web portal to all federal, state and local government web resources and services.